Simultaneous Nadir Overpasses (SNOs) Predictions

Prediction of SNOs between AQUA and NOAA-19 Satellite Orbit:

Table of predicted SNOs for the next 14.0 days since TLE Epoch: 1/26/2019
Index Date (AQUA) Time (AQUA) Lat,Lon (AQUA) SZA (AQUA ) Date (NOAA-19) Time (NOAA-19) Lat,Lon (NOAA-19) SZA (NOAA-19 ) Distance(km) Time Diff (sec)
1 01/26/2019 11:57:09 -80.56, 144.85 78.76 01/26/2019 11:56:22 -80.57, 144.71 78.72 2.76 47
2 01/26/2019 12:46:37 80.59, -47.80 101.28 01/26/2019 12:47:19 80.57, -47.91 101.27 2.55 42
3 01/28/2019 17:30:55 80.58,-118.80 100.72 01/28/2019 17:29:48 80.56,-118.66 100.72 3.17 67
4 01/28/2019 18:20:21 -80.58, 48.88 79.30 01/28/2019 18:20:51 -80.58, 48.96 79.32 1.60 30
5 01/30/2019 23:54:06 80.57, 145.49 100.10 01/30/2019 23:54:17 80.57, 145.40 100.10 1.68 11
6 02/02/2019 05:27:50 -80.56,-117.80 80.55 02/02/2019 05:27:50 -80.57,-117.78 80.54 1.46 0
7 02/04/2019 11:01:35 80.57, -21.31 98.83 02/04/2019 11:01:15 80.56, -21.34 98.83 0.82 20
8 02/06/2019 16:35:19 -80.55, 75.43 81.88 02/06/2019 16:34:49 -80.56, 75.36 81.85 1.70 30
9 02/06/2019 17:24:46 80.56,-117.09 98.14 02/06/2019 17:25:43 80.58,-116.95 98.12 2.90 57
10 02/08/2019 22:09:04 80.57, 171.80 97.47 02/08/2019 22:08:13 80.55, 171.89 97.47 2.50 51




NCC Satellite Simultaneous Nadir Overpasses (SNOs) Prediction Service
